Tracking 19651 objects as of 22-Apr-2019
HD Live streaming from Space Station
objects crossing your sky now

CATSAT-2

Track CATSAT-2 now!
10-day predictions


NORAD ID: 44029
Int'l Code: 1998-067PV
Perigee: 405.1 km
Apogee: 411.3 km
Inclination: 51.6 °
Period: 92.6 minutes
Semi major axis: 6779 km
RCS: Unknown
Launch date: November 20, 1998
Source: United States (US)
Launch site: TYURATAM MISSILE AND SPACE COMPLEX (TTMTR)
aabbcc
Your satellite tracking list
Your tracking list is empty




NASA's NSSDC Master Catalog

Two Line Element Set (TLE):
1 44029U 98067PV  19111.93400907  .00009964  00000-0  15065-3 0  9992
2 44029  51.6390 279.8238 0004592 291.7979  68.2524 15.55367566 12580
Source of the keplerian elements: AFSPC